Retour au catalogue

STARLINK-4584

ActifCommunicationsVLEO
NORAD 53571·PAYLOAD·🇺🇸 United States

Lancé Aug 19, 2022 depuis Cape Canaveral Space Force Station

Loading…

Prochains Passages (prochaines 24 heures)

TLE

FraisSource: CelesTrak SupGP

Époque: Sep 15, 2026, 01:39 UTC

1 53571C 22101AW  26258.06923611  .00004183  00000+0  12355-3 0  2580
2 53571  53.1564 269.3220 0001255  97.3054 307.0337 15.34399344    11

Suivez STARLINK-4584 en temps réel avec AllMySat

Download on the App Store